• In United Kingdom
  • List of Countries
  • For 7 days
  • Water Temperature
  • Satellite Maps
  • Weather Map
  • Weather Widgets
  • user-avatar
    Login

    Hourly Weather Salvador

    Today, 24 September, Monday

    Time Temperature Precipitation Wind Pressure Humidity
    00:00 +22°C° 0 mm 3 mps 758 mmHg 95%
    01:00 +22°C° 0 mm 3 mps 757 mmHg 96%
    02:00 +22°C° 0 mm 3 mps 757 mmHg 96%
    03:00 +23°C° 0 mm 2 mps 757 mmHg 96%
    04:00 +23°C° 0 mm 2 mps 757 mmHg 96%
    05:00 +23°C° 0 mm 2 mps 757 mmHg 96%
    06:00 +23°C° 0 mm 2 mps 757 mmHg 96%
    07:00 +25°C° 0 mm 2 mps 758 mmHg 86%
    08:00 +27°C° 0 mm 2 mps 758 mmHg 76%
    09:00 +30°C° 0 mm 2 mps 758 mmHg 66%
    10:00 +30°C° 0.1 mm 3 mps 758 mmHg 62%
    11:00 +31°C° 0.1 mm 3 mps 758 mmHg 58%
    12:00 +33°C° 0.1 mm 4 mps 757 mmHg 55%
    13:00 +32°C° 0.1 mm 4 mps 757 mmHg 58%
    14:00 +32°C° 0.1 mm 4 mps 756 mmHg 61%
    15:00 +30°C° 0.1 mm 5 mps 756 mmHg 64%
    16:00 +29°C° 0 mm 5 mps 756 mmHg 71%
    17:00 +27°C° 0 mm 4 mps 756 mmHg 77%
    18:00 +26°C° 0 mm 4 mps 756 mmHg 83%
    19:00 +25°C° 0 mm 4 mps 757 mmHg 87%
    20:00 +25°C° 0 mm 4 mps 757 mmHg 90%
    21:00 +23°C° 0 mm 4 mps 758 mmHg 93%
    22:00 +24°C° 0 mm 3 mps 758 mmHg 94%
    23:00 +24°C° 0 mm 3 mps 758 mmHg 94%

    Tomorrow, 25 September, Tuesday

    Time Temperature Precipitation Wind Pressure Humidity
    00:00 +22°C° 0 mm 3 mps 758 mmHg 95%
    01:00 +22°C° 0.1 mm 3 mps 757 mmHg 95%
    02:00 +22°C° 0.1 mm 3 mps 757 mmHg 95%
    03:00 +22°C° 0.1 mm 3 mps 757 mmHg 95%
    04:00 +22°C° 0 mm 3 mps 757 mmHg 94%
    05:00 +22°C° 0 mm 3 mps 757 mmHg 94%
    06:00 +22°C° 0 mm 3 mps 757 mmHg 93%
    07:00 +25°C° 0 mm 3 mps 758 mmHg 83%
    08:00 +27°C° 0 mm 3 mps 758 mmHg 73%
    09:00 +29°C° 0 mm 3 mps 759 mmHg 62%
    10:00 +30°C° 0 mm 3 mps 758 mmHg 60%
    11:00 +30°C° 0 mm 4 mps 758 mmHg 58%
    12:00 +32°C° 0 mm 4 mps 758 mmHg 56%
    13:00 +32°C° 0 mm 4 mps 757 mmHg 56%
    14:00 +30°C° 0 mm 4 mps 756 mmHg 57%
    15:00 +30°C° 0 mm 4 mps 755 mmHg 58%
    16:00 +29°C° 0 mm 4 mps 756 mmHg 66%
    17:00 +27°C° 0 mm 4 mps 756 mmHg 73%
    18:00 +25°C° 0 mm 3 mps 756 mmHg 81%
    19:00 +25°C° 0 mm 3 mps 757 mmHg 85%
    20:00 +24°C° 0 mm 3 mps 757 mmHg 89%
    21:00 +22°C° 0 mm 3 mps 758 mmHg 93%
    22:00 +22°C° 0.1 mm 3 mps 758 mmHg 94%
    23:00 +23°C° 0.1 mm 2 mps 758 mmHg 94%

    Day after tomorrow, 26 September, Wednesday

    Time Temperature Precipitation Wind Pressure Humidity
    00:00 +23°C° 0.1 mm 2 mps 757 mmHg 95%
    01:00 +23°C° 0.3 mm 2 mps 757 mmHg 96%
    02:00 +23°C° 0.3 mm 2 mps 757 mmHg 96%
    03:00 +21°C° 0.3 mm 2 mps 756 mmHg 97%
    04:00 +23°C° 0.3 mm 2 mps 756 mmHg 96%
    05:00 +23°C° 0.3 mm 2 mps 757 mmHg 96%
    06:00 +23°C° 0.3 mm 2 mps 757 mmHg 96%
    07:00 +25°C° 0.4 mm 3 mps 757 mmHg 87%
    08:00 +27°C° 0.4 mm 3 mps 758 mmHg 79%
    09:00 +29°C° 0.4 mm 4 mps 758 mmHg 71%
    10:00 +29°C° 0.3 mm 4 mps 758 mmHg 70%
    11:00 +29°C° 0.3 mm 4 mps 758 mmHg 68%
    12:00 +30°C° 0.3 mm 5 mps 757 mmHg 67%
    13:00 +30°C° 0.1 mm 5 mps 756 mmHg 67%
    14:00 +29°C° 0.1 mm 5 mps 756 mmHg 67%
    15:00 +29°C° 0.1 mm 5 mps 755 mmHg 68%
    16:00 +28°C° 0.1 mm 5 mps 755 mmHg 73%
    17:00 +27°C° 0.1 mm 5 mps 756 mmHg 79%
    18:00 +25°C° 0.1 mm 4 mps 756 mmHg 85%
    19:00 +25°C° 0 mm 4 mps 757 mmHg 87%
    20:00 +23°C° 0 mm 4 mps 757 mmHg 90%
    21:00 +23°C° 0 mm 4 mps 758 mmHg 92%
    22:00 +23°C° 0.1 mm 4 mps 758 mmHg 93%
    23:00 +24°C° 0.1 mm 3 mps 757 mmHg 94%

    27 September, Thursday

    Time Temperature Precipitation Wind Pressure Humidity
    00:00 +22°C° 0.1 mm 3 mps 757 mmHg 95%
    01:00 +22°C° 0.2 mm 3 mps 757 mmHg 95%
    02:00 +22°C° 0.2 mm 3 mps 756 mmHg 96%
    03:00 +22°C° 0.2 mm 3 mps 756 mmHg 96%
    04:00 +22°C° 0.3 mm 3 mps 756 mmHg 96%
    05:00 +22°C° 0.3 mm 3 mps 757 mmHg 96%
    06:00 +22°C° 0.3 mm 3 mps 757 mmHg 95%
    07:00 +25°C° 0.4 mm 3 mps 757 mmHg 89%
    08:00 +27°C° 0.4 mm 4 mps 758 mmHg 82%
    09:00 +28°C° 0.4 mm 4 mps 758 mmHg 75%
    10:00 +29°C° 0.3 mm 5 mps 758 mmHg 73%
    11:00 +29°C° 0.3 mm 5 mps 757 mmHg 71%
    12:00 +30°C° 0.3 mm 5 mps 757 mmHg 69%
    13:00 +29°C° 0.1 mm 5 mps 756 mmHg 69%
    14:00 +29°C° 0.1 mm 5 mps 756 mmHg 70%
    15:00 +29°C° 0.1 mm 5 mps 755 mmHg 70%
    16:00 +28°C° 0 mm 5 mps 756 mmHg 74%
    17:00 +27°C° 0 mm 5 mps 756 mmHg 77%
    18:00 +26°C° 0 mm 5 mps 756 mmHg 81%
    19:00 +25°C° 0 mm 5 mps 757 mmHg 84%
    20:00 +25°C° 0 mm 4 mps 757 mmHg 87%
    21:00 +23°C° 0 mm 4 mps 758 mmHg 90%
    22:00 +23°C° 0 mm 4 mps 758 mmHg 91%
    23:00 +22°C° 0 mm 4 mps 758 mmHg 93%

    28 September, Friday

    Time Temperature Precipitation Wind Pressure Humidity
    00:00 +22°C° 0 mm 3 mps 757 mmHg 94%
    01:00 +22°C° 0 mm 3 mps 757 mmHg 94%
    02:00 +22°C° 0 mm 3 mps 757 mmHg 95%
    03:00 +21°C° 0 mm 3 mps 756 mmHg 95%
    04:00 +22°C° 0 mm 3 mps 757 mmHg 95%
    05:00 +22°C° 0 mm 3 mps 757 mmHg 94%
    06:00 +22°C° 0 mm 3 mps 758 mmHg 94%
    07:00 +25°C° 0.1 mm 3 mps 758 mmHg 83%
    08:00 +28°C° 0.1 mm 4 mps 758 mmHg 72%
    09:00 +30°C° 0.1 mm 4 mps 759 mmHg 62%
    10:00 +32°C° 0 mm 4 mps 758 mmHg 59%
    11:00 +32°C° 0 mm 5 mps 758 mmHg 56%
    12:00 +33°C° 0 mm 5 mps 757 mmHg 53%
    13:00 +33°C° 0 mm 5 mps 756 mmHg 54%
    14:00 +33°C° 0 mm 5 mps 756 mmHg 56%
    15:00 +32°C° 0 mm 5 mps 755 mmHg 57%
    16:00 +30°C° 0 mm 5 mps 756 mmHg 64%
    17:00 +28°C° 0 mm 5 mps 756 mmHg 70%
    18:00 +27°C° 0 mm 5 mps 756 mmHg 77%
    19:00 +26°C° 0 mm 5 mps 757 mmHg 80%
    20:00 +25°C° 0 mm 5 mps 757 mmHg 84%
    21:00 +25°C° 0 mm 4 mps 757 mmHg 88%
    22:00 +23°C° 0 mm 4 mps 757 mmHg 90%
    23:00 +23°C° 0 mm 4 mps 757 mmHg 92%

    29 September, Saturday

    Time Temperature Precipitation Wind Pressure Humidity
    00:00 +23°C° 0 mm 4 mps 757 mmHg 94%
    01:00 +22°C° 0 mm 4 mps 756 mmHg 95%
    02:00 +22°C° 0 mm 4 mps 756 mmHg 95%
    03:00 +22°C° 0 mm 4 mps 756 mmHg 96%
    04:00 +22°C° 0 mm 4 mps 756 mmHg 95%
    05:00 +22°C° 0 mm 4 mps 757 mmHg 95%
    06:00 +23°C° 0 mm 4 mps 757 mmHg 94%
    07:00 +25°C° 0.1 mm 4 mps 758 mmHg 85%
    08:00 +27°C° 0.1 mm 4 mps 758 mmHg 76%
    09:00 +29°C° 0.1 mm 5 mps 758 mmHg 66%
    10:00 +30°C° 0.1 mm 5 mps 758 mmHg 62%
    11:00 +32°C° 0.1 mm 5 mps 757 mmHg 58%
    12:00 +33°C° 0.1 mm 5 mps 757 mmHg 54%
    13:00 +32°C° 0 mm 5 mps 756 mmHg 55%
    14:00 +32°C° 0 mm 5 mps 756 mmHg 56%
    15:00 +32°C° 0 mm 5 mps 755 mmHg 57%
    16:00 +29°C° 0 mm 5 mps 755 mmHg 63%
    17:00 +28°C° 0 mm 4 mps 756 mmHg 69%
    18:00 +26°C° 0 mm 4 mps 756 mmHg 76%
    19:00 +26°C° 0 mm 4 mps 756 mmHg 80%
    20:00 +25°C° 0 mm 4 mps 757 mmHg 84%
    21:00 +23°C° 0 mm 4 mps 757 mmHg 87%
    22:00 +23°C° 0 mm 4 mps 757 mmHg 89%
    23:00 +23°C° 0 mm 4 mps 757 mmHg 91%
    Show more